Tracking 25656 objects as of 22-May-2022
HD Live streaming from Space Station
objects crossing your sky now

FENGYUN 1D

Track FENGYUN 1D now!
10-day predictions
FENGYUN 1D is classified as:


NORAD ID: 27431
Int'l Code: 2002-024B
Perigee: 855.4 km
Apogee: 879.2 km
Inclination: 99.1 °
Period: 102.1 minutes
Semi major axis: 7238 km
RCS: 2.2279 m2 (large)
Launch date: May 15, 2002
Source: People's Republic of China (PRC)
Launch site: Taiyaun Space Center, China (TSC)

Polar-orbiting satellite; carries Multichannel Visible and Infrared Scan Radiometer (MVISR); means "wind and cloud."
aabbcc
Your satellite tracking list
Your tracking list is empty




NASA's NSSDC Master Catalog

Two Line Element Set (TLE):
1 27431U 02024B   22141.93775448  .00000056  00000-0  58224-4 0  9998
2 27431  99.1327 162.1538 0016477  94.2516 266.0537 14.09764446 29890
Source of the keplerian elements: AFSPC